Location: Seattle
(47.6064°N, 122.3308°W)
Time: 05:43:27
(UTC-08:00)

S-56A Canister/Altair - Pass Details

Date: 30 November 2020
Orbit: 633 x 2499 km, 38.9° (Epoch: 23 January)

Event Time Altitude Azimuth Distance (km) Brightness Sun altitude
Rises 18:28:28 0° 224° (SW) 5,920 12.9 -20.9°
Reaches altitude 10° 18:33:05 10° 216° (SW) 4,707 12.1 -21.7°
Maximum altitude 18:43:48 35° 159° (SSE) 2,566 10.0 -23.5°
Enters shadow 18:47:19 27° 123° (ESE) 2,635 9.8 -24.0°
Drops below altitude 10° 18:51:34 10° 98° (E) 3,395 - -24.8°
Sets 18:54:19 0° 89° (E) 4,125 - -25.2°
